Temperature
13 13 13 13 13 13 13 13 13 13 12 12 12 12 12 11 11 11 11 11 11 10 10 10 10 10 10 9 9 9 9 9 9 9 9 9 8 8 8 8 8 8 7
13 13 13 13 13 13 13 13 13 12 12 12 12 12 11 11 11 11 11 10 10 10 10 10 10 10 10 9 9 9 9 9 9 9 8 8 8 8 8 8 8 7 7
12 13 13 13 13 13 12 12 12 12 12 12 11 11 11 11 11 11 10 10 10 10 10 10 10 10 9 9 9 9 9 9 9 9 8 8 8 8 8 8 7 7 7
12 12 12 12 12 12 12 12 12 11 11 11 11 11 11 11 11 10 10 10 10 10 10 10 10 10 9 9 9 9 9 9 9 9 8 8 8 8 7 7 7 7 6
12 12 12 12 12 12 12 11 11 11 11 11 11 11 10 10 10 10 10 10 10 10 10 10 10 9 9 9 9 9 9 9 9 8 8 8 8 7 7 7 7 6 6
11 11 11 11 11 11 11 11 11 11 11 11 10 10 10 10 10 10 10 10 10 10 10 10 9 9 9 9 9 9 9 9 8 8 8 8 7 7 7 6 6 6 6
11 11 11 11 11 11 11 11 11 10 10 10 10 9 9 9 10 10 10 10 10 10 10 9 9 9 9 9 9 9 9 9 8 8 8 8 7 7 6 6 6 6 5
10 10 10 10 11 10 10 10 10 10 10 10 10 9 9 9 9 10 10 10 10 10 10 9 9 9 9 9 9 9 9 9 8 8 8 7 7 6 6 6 6 5 5
10 10 10 10 10 10 10 10 10 10 10 9 9 9 9 9 9 9 10 10 10 10 10 9 9 9 9 9 9 9 9 9 8 8 8 7 7 6 6 6 5 5 5
9 9 9 9 10 10 10 10 10 10 10 9 9 9 10 10 9 9 9 9 10 10 10 9 9 9 9 9 9 9 9 8 8 8 8 7 7 6 6 5 5 5 5
9 9 9 9 9 9 9 9 9 10 10 10 9 9 9 9 10 9 9 9 9 10 10 9 9 9 9 9 9 9 8 8 8 8 8 7 7 6 6 5 5 5 4
8 8 8 8 9 9 9 9 9 9 9 9 9 9 9 10 10 10 10 9 9 9 9 9 9 9 9 9 9 9 8 8 8 8 7 7 7 6 6 5 5 4 4
8 8 8 8 8 9 9 9 9 9 9 9 9 9 9 10 10 10 10 9 9 9 9 9 9 9 9 9 9 8 8 8 8 7 7 7 6 6 6 5 4 4 3
7 8 8 8 8 8 9 9 9 9 9 9 9 9 9 9 9 10 10 10 9 9 9 9 9 9 9 9 9 8 8 8 7 7 7 6 6 6 5 4 4 3 3
7 8 8 8 8 8 8 9 9 9 9 9 9 9 9 9 9 9 10 10 9 8 8 9 9 9 9 9 9 8 8 7 7 7 6 6 6 5 5 4 4 3 2
7 7 7 8 8 8 8 8 8 8 9 9 9 9 9 9 9 9 9 9 9 9 9 9 9 9 9 9 8 8 7 7 7 7 6 6 5 5 4 4 3 3 2
7 7 7 7 7 7 8 8 8 8 8 9 9 9 9 9 9 9 9 9 9 9 9 9 9 9 9 8 8 8 7 7 7 6 6 5 5 4 4 4 3 2 2
7 7 7 7 7 7 7 8 7 8 8 8 9 9 9 9 9 9 9 9 9 9 9 9 9 8 8 8 8 7 7 7 6 6 5 5 4 4 4 3 3 2 2
6 7 7 7 7 7 7 7 7 8 8 8 8 8 8 8 8 8 9 9 9 9 9 9 8 8 8 8 7 7 7 6 6 5 5 4 4 4 3 3 2 2 1
6 6 7 7 7 7 7 7 7 8 8 8 8 8 8 8 9 8 8 8 8 8 8 8 8 8 8 8 7 7 6 6 5 5 5 4 4 3 3 2 2 1 1
6 6 6 6 7 7 7 7 7 7 8 8 8 8 8 8 9 8 8 8 8 8 8 8 8 8 7 7 7 7 6 6 5 5 4 4 3 3 3 2 2 1 0
6 6 6 6 6 7 7 7 7 7 7 8 8 8 8 8 8 8 8 8 8 8 8 8 8 7 7 7 7 6 6 5 5 4 4 4 3 3 2 2 1 1 0
5 6 6 6 7 7 7 7 7 7 7 7 8 8 8 8 8 8 8 8 8 8 8 8 8 7 7 7 7 6 6 5 5 4 4 3 3 2 2 1 1 0 -0
5 6 6 6 6 7 7 7 7 7 7 7 8 8 8 8 8 8 8 8 8 7 7 7 7 7 7 7 6 6 6 5 4 4 3 3 3 2 1 1 0 -0 -1
5 5 6 6 6 7 7 7 7 7 7 7 7 8 8 8 8 8 7 7 7 7 7 7 7 7 6 6 6 6 5 4 4 3 3 2 2 2 1 1 -0 -1 -1
5 5 6 6 6 6 7 7 7 7 7 7 7 7 8 8 8 7 7 7 7 7 7 7 6 6 6 6 5 5 5 4 4 3 2 2 2 1 0 0 -0 -1 -1
Wind_Speed
6 6 6 6 7 8 9 8 8 9 10 10 10 10 9 8 9 8 8 10 10 10 11 10 10 10 9 8 7 5 4 3 2 1 1 2 3 4 5 6 8 9 10
7 7 7 7 7 8 9 9 9 9 9 9 9 9 9 9 9 9 9 9 10 10 11 10 10 10 10 9 7 6 5 3 2 1 2 3 4 5 6 7 8 9 10
8 8 7 7 7 9 10 8 8 7 7 8 9 9 8 8 8 8 9 8 9 10 10 10 10 10 10 9 7 6 5 4 3 3 3 4 5 6 7 8 8 9 10
8 8 7 8 8 8 9 9 9 8 8 8 8 7 7 7 7 8 8 8 8 8 9 10 10 10 10 9 7 7 6 5 4 4 4 5 6 6 7 8 9 10 11
9 8 8 8 9 8 8 9 8 8 8 8 8 7 6 6 7 7 7 8 9 9 8 9 9 9 9 9 8 7 7 6 6 5 6 6 6 7 8 9 10 11 11
10 9 7 9 9 8 8 9 9 8 7 8 8 6 5 5 5 6 7 7 8 9 9 9 8 8 8 9 9 8 8 7 7 6 6 7 7 8 9 9 10 11 12
9 9 7 8 9 9 10 10 8 10 7 7 5 4 1 3 5 6 6 6 6 8 9 9 9 8 8 8 8 8 8 8 8 7 7 8 8 9 9 10 11 11 12
10 10 10 9 10 9 10 11 9 8 6 8 7 6 3 3 4 5 5 7 7 6 7 9 10 9 9 8 8 8 8 9 9 8 8 8 8 9 10 10 11 12 13
10 10 11 11 11 11 11 11 13 11 10 8 7 7 6 6 3 3 5 6 7 6 6 7 9 10 10 9 9 8 8 9 9 9 8 8 9 9 10 10 11 11 12
9 10 10 11 12 11 11 12 12 10 12 11 7 4 3 5 5 3 3 4 6 7 7 6 7 9 10 10 9 9 9 9 8 8 8 8 8 9 10 10 11 11 12
9 10 11 11 11 10 11 12 12 12 11 11 9 5 3 2 3 4 5 4 4 5 6 6 6 7 9 10 9 10 9 8 8 7 7 7 8 9 10 10 10 11 11
7 10 11 11 11 10 11 12 12 14 13 11 9 7 6 6 5 4 5 6 5 4 4 4 5 7 8 10 10 10 9 8 7 7 6 7 7 8 9 9 10 10 11
8 10 11 10 10 11 12 12 12 13 14 14 12 10 7 6 5 4 4 4 3 1 2 3 5 6 8 9 9 10 9 8 7 6 6 5 6 7 8 8 9 10 11
9 10 11 11 11 12 12 12 10 12 13 14 13 12 8 7 7 6 5 6 4 2 2 4 2 5 7 8 9 10 7 7 7 6 5 5 5 6 6 7 8 9 10
8 10 10 11 11 12 13 12 10 12 13 13 13 13 10 7 7 6 6 6 7 5 5 5 3 4 6 7 8 8 7 7 6 5 5 5 5 5 5 6 7 8 9
8 9 10 11 11 12 12 12 11 11 13 12 11 12 11 8 8 6 7 6 5 5 5 4 3 3 5 6 8 7 7 7 6 5 5 4 4 4 4 5 6 7 8
9 10 10 10 11 11 12 12 11 12 14 12 11 13 12 10 9 7 6 6 5 5 5 2 2 2 4 5 4 5 6 5 4 4 4 3 3 2 3 4 6 7 8
9 10 10 10 10 11 11 12 12 12 13 14 13 13 13 11 11 9 8 8 7 6 5 5 3 3 3 4 4 4 3 4 3 3 3 3 2 2 3 4 5 6 7
8 9 10 10 10 11 11 12 12 12 13 13 13 14 13 13 12 9 9 8 7 6 5 5 4 2 2 3 3 2 2 2 2 2 2 2 1 1 2 3 4 6 7
7 9 9 9 9 10 10 11 12 12 11 12 12 13 13 14 13 12 10 10 8 7 6 5 4 3 3 3 4 3 2 1 1 1 1 0 0 1 2 3 4 5 7
6 8 8 8 9 9 9 10 11 11 11 11 10 11 11 13 15 13 10 10 10 8 7 6 5 3 4 4 4 3 3 2 1 1 0 0 1 1 2 3 4 5 7
6 6 8 8 9 8 9 10 11 10 10 11 11 10 10 12 14 15 14 14 13 11 10 7 5 6 6 5 4 4 4 3 2 1 1 1 1 0 1 2 4 5 7
6 6 7 8 9 9 11 12 13 11 10 10 11 10 8 9 12 11 11 12 11 11 12 10 9 8 7 7 8 6 4 3 2 2 1 0 0 1 1 3 4 5 7
5 5 6 8 7 8 11 11 12 10 9 10 11 11 11 10 11 12 10 8 6 6 8 7 7 7 7 8 8 7 6 5 3 1 1 1 0 1 2 3 4 5 7
6 5 5 5 6 8 10 11 10 8 8 9 9 10 11 11 14 16 12 10 8 5 7 11 10 10 12 13 11 8 6 4 2 1 1 1 0 1 1 2 3 6 7
6 4 4 4 6 7 9 10 8 7 8 7 7 8 12 13 16 17 13 12 11 8 9 9 9 10 9 10 11 7 7 5 3 2 1 2 1 1 1 2 2 4 5
Wind_Direction
202 194 187 184 186 176 172 170 168 167 164 162 163 165 167 171 174 178 187 190 189 190 185 183 184 185 182 175 172 173 174 171 168 145 4 350 345 342 340 340 340 339 339
200 200 194 190 190 182 176 175 175 174 173 168 169 171 172 174 179 181 187 193 195 197 196 193 194 192 186 183 183 187 192 197 210 244 292 314 319 323 328 330 331 332 333
201 200 196 194 191 184 177 172 172 171 173 170 173 173 175 178 179 185 186 190 195 199 201 202 200 198 195 194 197 201 206 214 226 248 277 294 302 311 317 322 324 326 327
207 202 202 197 187 183 180 178 177 176 179 176 174 178 179 179 183 187 185 188 191 196 202 204 205 205 204 204 209 213 214 221 233 249 267 283 295 304 309 314 318 320 322
208 207 209 198 185 185 189 186 181 177 179 179 176 176 179 184 186 186 188 191 193 194 197 202 206 210 212 214 219 221 223 230 241 253 266 279 289 298 304 309 314 316 319
215 208 211 198 185 186 191 188 181 178 178 173 171 170 177 186 187 192 195 192 194 196 196 199 202 209 213 219 225 228 231 237 246 257 269 277 286 294 301 306 311 313 317
220 209 215 201 191 193 193 190 182 177 175 159 149 153 157 187 199 199 196 193 196 196 196 198 200 203 210 217 225 233 241 246 252 259 268 278 286 293 299 304 309 312 316
223 217 211 204 197 196 193 191 179 174 176 171 162 155 170 204 225 208 196 199 200 192 196 200 200 202 205 209 218 229 243 253 260 266 272 281 289 296 302 306 309 314 317
224 219 215 207 200 197 199 195 188 180 181 186 179 167 169 197 187 208 205 203 198 196 200 196 200 204 205 206 214 224 233 247 258 268 275 282 289 296 302 306 311 314 317
224 217 213 209 203 201 201 198 197 188 179 185 187 198 175 154 162 183 210 205 201 203 202 200 199 201 202 203 211 220 229 240 252 263 273 282 291 297 302 308 312 316 319
227 222 213 209 202 201 202 201 199 192 188 187 185 175 168 154 150 163 189 198 207 212 204 201 199 199 200 202 207 217 224 232 246 258 270 282 292 299 305 310 315 319 321
231 224 216 209 204 200 200 201 202 196 193 191 189 181 174 170 175 172 184 190 202 211 202 195 197 199 199 200 206 211 216 226 239 254 267 279 290 300 306 310 314 317 319
237 224 214 209 205 204 203 200 200 201 196 192 194 192 191 187 167 165 164 172 180 192 190 204 204 196 198 197 202 204 211 220 231 248 261 273 289 299 306 311 315 317 319
231 220 213 211 209 205 203 201 202 203 197 196 197 192 191 191 183 178 168 163 169 191 209 214 193 198 194 192 195 195 203 213 223 233 251 269 281 290 300 309 315 320 322
229 220 212 211 211 209 204 198 203 206 197 195 197 193 194 193 190 185 174 172 173 190 214 204 191 191 190 185 188 186 192 203 210 222 242 260 270 281 294 309 316 319 321
225 220 214 211 209 208 203 201 202 205 197 196 194 193 196 194 188 184 179 178 181 184 202 195 188 170 176 178 185 179 186 195 204 222 238 250 263 275 295 314 318 319 322
226 217 217 211 208 207 201 200 203 201 198 195 193 194 196 186 185 185 178 175 179 174 193 196 150 147 161 168 161 162 173 180 196 215 223 234 249 265 296 312 314 317 323
231 219 213 210 209 207 202 200 203 200 197 194 194 194 195 188 186 184 182 183 185 181 180 187 170 165 168 170 156 160 165 170 175 195 206 220 227 263 294 308 313 319 325
231 217 209 211 211 208 204 202 201 200 198 195 193 195 193 185 188 186 183 183 184 177 174 172 172 158 151 149 145 147 139 133 142 167 182 198 221 268 303 311 317 323 328
234 216 207 210 212 210 207 205 200 199 198 196 193 194 193 190 188 185 185 183 176 170 163 160 160 153 147 140 148 158 158 133 102 88 81 101 95 31 334 329 330 331 330
244 225 209 210 211 207 206 200 197 196 194 193 193 194 193 190 185 184 184 180 175 175 168 167 167 159 164 162 178 164 164 137 110 89 84 78 95 54 350 343 335 331 333
249 231 209 207 211 215 207 201 194 192 192 191 190 190 189 185 183 180 179 177 176 177 179 178 180 181 186 177 158 151 143 139 195 162 120 268 97 306 321 320 328 333 335
251 237 218 209 211 209 199 195 189 189 191 192 188 187 187 186 177 176 174 170 173 176 178 179 181 186 179 176 162 156 158 153 169 161 123 214 344 291 308 325 334 339 343
259 239 226 209 205 203 194 190 183 185 189 192 189 186 182 179 177 168 163 161 164 174 177 174 174 173 166 161 162 157 145 119 93 74 93 144 316 301 328 328 344 354 351
267 239 209 204 203 203 192 184 178 180 185 190 189 183 179 179 170 159 158 158 156 150 132 135 134 134 136 138 136 125 128 124 129 158 79 109 102 320 314 309 333 353 353
265 238 221 203 202 202 192 183 176 180 182 184 182 180 178 175 168 162 165 164 166 163 146 133 123 117 118 125 130 140 150 144 137 163 171 117 110 57 338 311 322 339 348
Height
1466 1468 1471 1473 1476 1477 1480 1483 1486 1489 1491 1494 1497 1500 1503 1505 1507 1510 1512 1514 1516 1517 1519 1519 1520 1521 1521 1522 1522 1522 1522 1522 1522 1522 1521 1520 1520 1518 1517 1516 1515 1513 1511
1461 1463 1465 1468 1471 1473 1475 1478 1481 1485 1488 1490 1493 1496 1499 1503 1505 1507 1509 1512 1513 1515 1517 1518 1519 1519 1520 1520 1521 1521 1521 1521 1521 1520 1519 1519 1518 1517 1516 1515 1513 1511 1509
1456 1458 1460 1462 1466 1469 1471 1473 1476 1480 1483 1486 1489 1493 1496 1499 1502 1504 1507 1509 1511 1513 1514 1516 1517 1517 1518 1519 1519 1519 1519 1519 1519 1518 1518 1517 1516 1515 1514 1512 1511 1509 1507
1451 1452 1454 1457 1460 1463 1466 1468 1471 1474 1478 1481 1485 1488 1492 1495 1498 1501 1504 1506 1508 1510 1511 1513 1514 1515 1516 1516 1517 1517 1517 1517 1517 1516 1516 1515 1514 1513 1511 1510 1509 1507 1505
1445 1447 1449 1451 1454 1457 1460 1463 1465 1469 1472 1476 1480 1484 1488 1491 1494 1497 1500 1502 1504 1506 1508 1510 1511 1512 1513 1514 1514 1515 1515 1515 1514 1514 1513 1513 1511 1510 1509 1508 1506 1504 1502
1440 1441 1443 1445 1448 1451 1454 1458 1460 1464 1468 1471 1476 1480 1484 1487 1490 1493 1496 1498 1501 1503 1505 1507 1508 1509 1510 1511 1512 1512 1512 1512 1512 1511 1511 1510 1509 1508 1506 1505 1503 1501 1499
1433 1435 1437 1439 1441 1444 1448 1452 1456 1458 1462 1467 1472 1476 1480 1483 1486 1489 1492 1494 1496 1499 1501 1503 1505 1506 1507 1508 1508 1509 1509 1509 1509 1509 1508 1507 1506 1505 1503 1502 1500 1498 1496
1427 1429 1430 1433 1435 1438 1442 1446 1449 1452 1456 1461 1465 1470 1474 1479 1480 1483 1486 1489 1492 1494 1496 1499 1501 1502 1503 1504 1505 1506 1506 1506 1506 1506 1505 1504 1503 1502 1500 1499 1497 1495 1492
1420 1422 1424 1426 1428 1432 1435 1438 1442 1445 1450 1454 1459 1463 1467 1469 1474 1478 1480 1483 1487 1489 1492 1494 1496 1498 1499 1500 1501 1502 1502 1503 1503 1502 1502 1501 1500 1498 1497 1495 1493 1491 1488
1412 1415 1417 1419 1421 1424 1428 1432 1436 1440 1444 1447 1453 1457 1460 1462 1467 1471 1474 1478 1481 1484 1487 1489 1492 1493 1495 1496 1497 1498 1499 1499 1499 1499 1498 1497 1496 1495 1493 1491 1489 1487 1484
1405 1408 1410 1412 1414 1417 1421 1426 1430 1434 1437 1441 1445 1449 1454 1457 1461 1463 1466 1471 1475 1478 1481 1484 1487 1489 1490 1492 1493 1494 1495 1495 1495 1495 1494 1493 1492 1491 1489 1487 1485 1483 1480
1399 1401 1403 1405 1407 1410 1414 1418 1423 1426 1431 1436 1440 1443 1447 1451 1454 1459 1461 1464 1469 1473 1476 1479 1481 1484 1486 1488 1489 1490 1491 1491 1491 1491 1490 1489 1488 1487 1485 1483 1481 1479 1476
1391 1392 1395 1397 1400 1403 1408 1412 1416 1420 1424 1429 1433 1438 1443 1447 1451 1455 1458 1460 1464 1468 1471 1474 1477 1479 1481 1483 1485 1486 1487 1487 1487 1487 1486 1485 1484 1482 1481 1479 1477 1474 1472
1383 1385 1388 1391 1393 1397 1401 1405 1409 1413 1418 1422 1427 1432 1437 1442 1447 1450 1454 1456 1459 1463 1465 1468 1471 1474 1476 1478 1480 1482 1482 1483 1483 1482 1482 1481 1480 1478 1476 1475 1472 1470 1468
1376 1378 1381 1384 1387 1391 1394 1398 1402 1407 1411 1415 1421 1426 1431 1436 1441 1445 1449 1452 1455 1457 1460 1462 1466 1469 1471 1474 1475 1477 1478 1478 1478 1478 1478 1477 1475 1474 1472 1470 1468 1466 1464
1371 1372 1375 1378 1381 1384 1387 1391 1395 1400 1404 1409 1414 1420 1425 1431 1436 1440 1443 1447 1451 1453 1455 1457 1460 1463 1466 1469 1471 1472 1473 1474 1474 1474 1473 1472 1471 1470 1468 1466 1464 1462 1459
1365 1367 1369 1371 1374 1377 1380 1385 1389 1394 1398 1402 1408 1413 1419 1424 1429 1434 1438 1441 1445 1449 1451 1453 1456 1459 1462 1464 1466 1467 1468 1469 1469 1469 1469 1468 1467 1465 1464 1462 1460 1458 1455
1359 1361 1363 1365 1368 1371 1374 1378 1383 1387 1391 1396 1401 1407 1412 1418 1423 1428 1432 1436 1440 1444 1446 1448 1451 1454 1457 1459 1461 1463 1464 1464 1465 1465 1465 1464 1463 1461 1460 1458 1456 1454 1452
1353 1355 1357 1359 1362 1365 1368 1372 1377 1381 1385 1390 1395 1400 1406 1411 1417 1422 1427 1431 1434 1438 1442 1444 1446 1449 1452 1454 1456 1458 1459 1460 1460 1460 1460 1460 1459 1457 1456 1454 1452 1450 1448
1347 1349 1351 1354 1357 1359 1363 1367 1371 1375 1380 1384 1389 1395 1400 1405 1411 1416 1421 1425 1429 1433 1436 1439 1441 1444 1446 1449 1451 1453 1454 1455 1456 1456 1456 1456 1455 1454 1452 1450 1449 1447 1445
1342 1344 1346 1348 1351 1354 1357 1361 1366 1370 1374 1379 1384 1389 1395 1400 1406 1411 1415 1419 1424 1427 1430 1433 1436 1438 1441 1443 1446 1448 1449 1451 1452 1452 1452 1452 1451 1450 1449 1447 1445 1444 1442
1337 1338 1340 1343 1345 1349 1353 1357 1361 1365 1369 1374 1379 1384 1390 1395 1400 1406 1411 1415 1419 1422 1425 1428 1430 1433 1436 1439 1441 1443 1445 1446 1447 1449 1449 1448 1448 1446 1445 1444 1442 1441 1439
1332 1333 1335 1338 1340 1344 1348 1352 1357 1361 1365 1369 1374 1379 1385 1390 1395 1400 1405 1409 1413 1417 1420 1423 1425 1428 1431 1434 1437 1439 1441 1442 1443 1444 1445 1444 1444 1443 1442 1441 1439 1438 1437
1328 1329 1331 1334 1337 1340 1344 1348 1352 1357 1361 1365 1370 1374 1380 1384 1389 1395 1399 1403 1407 1411 1414 1418 1421 1424 1428 1431 1433 1435 1437 1439 1440 1441 1442 1441 1441 1440 1439 1438 1437 1436 1434
1324 1326 1328 1330 1333 1336 1340 1344 1348 1352 1356 1361 1365 1370 1375 1380 1385 1389 1394 1398 1402 1406 1410 1414 1417 1421 1424 1427 1429 1431 1433 1435 1436 1437 1438 1438 1438 1437 1437 1436 1435 1434 1432
1321 1323 1325 1327 1330 1332 1335 1339 1343 1348 1352 1356 1361 1365 1370 1375 1380 1384 1389 1393 1397 1401 1405 1409 1413 1417 1420 1423 1425 1428 1430 1431 1432 1434 1435 1435 1435 1435 1434 1434 1433 1432 1430